Location: Luxembourg
(49.6117°N, 6.1300°E)
Time: 10:42:40
(UTC+01:00)

N. Korean satellite - Visible Passes

Search period start: 19 January 2018 00:00
Search period end: 29 January 2018 00:00
Orbit: 459 x 515 km, 97.2° (Epoch: 18 January)

Date Brightness Start Highest point End Pass type
(mag) Time Alt. Az. Time Alt. Az. Time Alt. Az.
19 Jan 8.6 06:53:25 10° NNE 06:56:33 31° E 06:59:39 10° SSE visible
19 Jan 8.8 19:07:17 10° SSW 19:10:24 27° W 19:13:29 10° NW visible
20 Jan 9.6 06:30:21 10° NE 06:32:44 17° E 06:35:06 10° SE visible
20 Jan 7.5 18:43:08 10° S 18:46:38 50° W 18:50:06 10° NNW visible
21 Jan 6.4 07:39:21 10° N 07:42:48 70° WNW 07:46:14 10° SSW visible
21 Jan 6.5 18:19:21 10° SSE 18:22:56 84° ENE 18:26:30 10° NNW visible
22 Jan 7.1 07:15:41 10° NNE 07:19:07 59° E 07:22:32 10° S visible
22 Jan 6.9 17:55:56 10° SE 17:59:19 43° ENE 18:02:41 10° N visible
22 Jan 9.8 19:30:51 10° SW 19:33:03 16° W 19:35:15 10° NW visible
23 Jan 8.6 06:52:15 10° NNE 06:55:21 30° E 06:58:27 10° SSE visible
23 Jan 8.8 19:06:08 10° SSW 19:09:13 27° W 19:12:17 10° NW visible
24 Jan 9.7 06:29:11 10° NE 06:31:31 17° E 06:33:52 10° SE visible
24 Jan 7.5 18:41:59 10° S 18:45:26 51° W 18:48:54 10° NNW visible
25 Jan 6.4 07:38:08 10° N 07:41:35 72° WNW 07:45:02 10° SSW visible
25 Jan 6.4 18:18:12 10° SSE 18:21:45 82° ENE 18:25:16 10° N visible
26 Jan 7.2 07:14:28 10° NNE 07:17:54 57° E 07:21:19 10° S visible
26 Jan 6.9 17:54:46 10° SE 17:58:07 42° ENE 18:01:27 10° N visible
26 Jan 9.8 19:29:39 10° SW 19:31:50 16° W 19:34:02 10° NW visible
27 Jan 8.7 06:51:02 10° NNE 06:54:08 30° E 06:57:14 10° SSE visible
27 Jan 8.8 19:04:56 10° SSW 19:07:59 27° W 19:11:03 10° NW visible
28 Jan 9.8 06:27:58 10° NE 06:30:17 17° E 06:32:37 10° SE visible
28 Jan 7.4 18:40:46 10° S 18:44:13 52° W 18:47:38 10° NNW visible
